Location: Newark
(27.9675°N, 86.8869°E)
Time: 04:46:48
(UTC+00:00)

A-11 Canister half - Visible Passes

Search period start: 23 October 2019 00:00
Search period end: 02 November 2019 00:00
Orbit: 1527 x 1682 km, 47.3° (Epoch: 22 October)

Date Brightness Start Highest point End Pass type
(mag) Time Alt. Az. Time Alt. Az. Time Alt. Az.
23 Oct 9.1 12:11:11 10° SW 12:20:52 85° NW 12:30:17 10° NE visible
23 Oct 10.1 14:18:44 10° W 14:26:54 32° NNW 14:29:31 28° N visible
23 Oct 10.5 20:54:23 21° SSE 20:54:23 21° SSE 20:57:05 10° SSE visible
23 Oct 10.5 22:52:45 12° SW 22:52:45 12° SW 22:55:18 10° SSW visible
24 Oct 9.1 11:49:32 10° SW 11:59:14 89° NW 12:08:40 10° NE visible
24 Oct 10.1 13:56:54 10° W 14:05:11 33° NNW 14:09:10 24° NNE visible
24 Oct 11.1 16:06:06 10° NW 16:07:28 13° NW 16:07:28 13° NW visible
24 Oct 10.9 20:34:40 13° SE 20:34:40 13° SE 20:35:30 10° SE visible
24 Oct 10.6 22:33:01 12° SW 22:33:01 12° SW 22:34:27 10° SSW visible
25 Oct 10.1 13:35:04 10° W 13:43:27 34° NNW 13:48:45 20° NNE visible
25 Oct 10.9 15:44:20 10° NW 15:47:03 17° NNW 15:47:03 17° NNW visible
25 Oct 10.8 22:13:13 10° SSW 22:13:13 10° SSW 22:13:28 10° SSW visible
26 Oct 10.1 13:13:14 10° W 13:21:45 35° NNW 13:28:19 16° NNE visible
26 Oct 10.7 15:22:33 10° NW 15:26:36 20° NNW 15:26:36 20° NNW visible
27 Oct 10.0 12:51:24 10° W 13:00:02 37° NNW 13:07:50 12° NE visible
27 Oct 10.5 15:00:46 10° NW 15:06:08 21° NNW 15:06:08 21° NNW visible
28 Oct 10.0 12:29:35 10° W 12:38:20 38° NNW 12:46:54 10° NE visible
28 Oct 10.4 14:38:59 10° NW 14:45:37 22° N 14:45:37 22° N visible
29 Oct 10.0 12:07:46 10° W 12:16:38 40° NNW 12:25:18 10° NE visible
29 Oct 10.3 14:17:10 10° NW 14:24:13 23° N 14:25:06 22° N visible
30 Oct 9.9 11:45:57 10° W 11:54:55 41° NNW 12:03:42 10° NE visible
30 Oct 10.3 13:55:21 10° NW 14:02:26 23° N 14:04:34 21° NNE visible
30 Oct 11.1 16:02:17 10° NW 16:02:51 12° NW 16:02:51 12° NW visible
31 Oct 10.3 13:33:32 10° NW 13:40:40 23° N 13:44:00 19° NNE visible
31 Oct 10.9 15:40:39 10° NW 15:42:18 15° NNW 15:42:18 15° NNW visible
01 Nov 10.4 13:11:41 10° WNW 13:18:54 23° N 13:23:28 17° NNE visible
01 Nov 10.7 15:19:00 10° NW 15:21:46 19° NNW 15:21:46 19° NNW visible
